Time,TemperatureF,DewpointF,PressureIn,WindDirection,WindDirectionDegrees,WindSpeedMPH,WindSpeedGustMPH,Humidity,HourlyPrecipIn,Conditions,Clouds,dailyrainin,SolarRadiationWatts/m^2,SoftwareType,DateUTC
2013-11-14 00:02:00,28.0,14.0,-100.00,WSW,247,0.0,3.0,56,0.00,,,0.02,2.000000,,2013-11-14 00:02:00,
2013-11-14 00:11:00,27.0,16.0,-100.00,NW,312,2.0,3.0,63,0.00,,,0.02,0.000000,,2013-11-14 00:11:00,
2013-11-14 00:42:00,27.0,16.0,-100.00,NW,312,2.0,3.0,63,0.00,,,0.02,0.000000,,2013-11-14 00:42:00,
2013-11-14 00:52:00,27.0,16.0,-100.00,NW,312,2.0,3.0,63,0.00,,,0.02,0.000000,,2013-11-14 00:52:00,
2013-11-14 01:02:00,27.0,16.0,-100.00,NW,312,2.0,3.0,63,0.00,,,0.02,0.000000,,2013-11-14 01:02:00,
2013-11-14 01:11:00,25.0,17.0,-100.00,NNW,332,1.0,2.0,71,0.00,,,0.02,0.000000,,2013-11-14 01:11:00,
2013-11-14 01:42:00,25.0,17.0,-100.00,NNW,332,1.0,2.0,71,0.00,,,0.02,0.000000,,2013-11-14 01:42:00,
2013-11-14 01:52:00,25.0,17.0,-100.00,NNW,332,1.0,2.0,71,0.00,,,0.02,0.000000,,2013-11-14 01:52:00,
2013-11-14 02:02:00,25.0,17.0,-100.00,NNW,332,1.0,2.0,71,0.00,,,0.02,0.000000,,2013-11-14 02:02:00,
2013-11-14 02:11:00,24.0,16.0,-100.00,NW,325,1.0,2.0,71,0.00,,,0.02,0.000000,,2013-11-14 02:11:00,
2013-11-14 02:53:00,24.0,16.0,-100.00,NW,325,1.0,2.0,71,0.00,,,0.02,0.000000,,2013-11-14 02:53:00,
2013-11-14 03:02:00,24.0,16.0,-100.00,NW,325,1.0,2.0,71,0.00,,,0.02,0.000000,,2013-11-14 03:02:00,
2013-11-14 03:11:00,22.0,16.0,-100.00,NNW,329,0.0,2.0,77,0.00,,,0.02,0.000000,,2013-11-14 03:11:00,
2013-11-14 03:44:00,22.0,16.0,-100.00,NNW,329,0.0,2.0,77,0.00,,,0.02,0.000000,,2013-11-14 03:44:00,
2013-11-14 03:54:00,22.0,16.0,-100.00,NNW,329,0.0,2.0,77,0.00,,,0.02,0.000000,,2013-11-14 03:54:00,
2013-11-14 04:04:00,22.0,16.0,-100.00,NNW,329,0.0,2.0,77,0.00,,,0.02,0.000000,,2013-11-14 04:04:00,
2013-11-14 04:11:00,23.0,16.0,-100.00,North,354,0.0,4.0,74,0.00,,,0.02,0.000000,,2013-11-14 04:11:00,
2013-11-14 04:43:00,23.0,16.0,-100.00,North,354,0.0,4.0,74,0.00,,,0.02,0.000000,,2013-11-14 04:43:00,
2013-11-14 04:54:00,23.0,16.0,-100.00,North,354,0.0,4.0,74,0.00,,,0.02,0.000000,,2013-11-14 04:54:00,
2013-11-14 05:03:00,23.0,16.0,-100.00,North,354,0.0,4.0,74,0.00,,,0.02,0.000000,,2013-11-14 05:03:00,
2013-11-14 05:11:00,22.0,16.0,-100.00,NW,326,0.0,0.0,76,0.00,,,0.02,0.000000,,2013-11-14 05:11:00,
2013-11-14 05:44:00,22.0,16.0,-100.00,NW,326,0.0,0.0,76,0.00,,,0.02,0.000000,,2013-11-14 05:44:00,
2013-11-14 05:53:00,22.0,16.0,-100.00,NW,326,0.0,0.0,76,0.00,,,0.02,0.000000,,2013-11-14 05:53:00,
2013-11-14 06:03:00,22.0,16.0,-100.00,NW,326,0.0,0.0,76,0.00,,,0.02,0.000000,,2013-11-14 06:03:00,
2013-11-14 06:11:00,21.0,15.0,-100.00,NW,317,0.0,2.0,76,0.00,,,0.02,0.000000,,2013-11-14 06:11:00,
2013-11-14 06:42:00,21.0,15.0,-100.00,NW,317,0.0,2.0,76,0.00,,,0.02,0.000000,,2013-11-14 06:42:00,
2013-11-14 06:52:00,21.0,15.0,-100.00,NW,317,0.0,2.0,76,0.00,,,0.02,0.000000,,2013-11-14 06:52:00,
2013-11-14 07:02:00,21.0,15.0,-100.00,NW,317,0.0,2.0,76,0.00,,,0.02,0.000000,,2013-11-14 07:02:00,
2013-11-14 07:11:00,21.0,16.0,-100.00,NE,43,0.0,3.0,80,0.00,,,0.02,0.000000,,2013-11-14 07:11:00,
2013-11-14 07:42:00,21.0,16.0,-100.00,NE,43,0.0,3.0,80,0.00,,,0.02,0.000000,,2013-11-14 07:42:00,
2013-11-14 07:53:00,21.0,16.0,-100.00,NE,43,0.0,3.0,80,0.00,,,0.02,0.000000,,2013-11-14 07:53:00,
2013-11-14 08:01:00,21.0,16.0,-100.00,NE,43,0.0,3.0,80,0.00,,,0.02,0.000000,,2013-11-14 08:01:00,
2013-11-14 08:11:00,20.0,14.0,-100.00,North,354,0.0,0.0,78,0.00,,,0.02,0.000000,,2013-11-14 08:11:00,
2013-11-14 08:42:00,20.0,14.0,-100.00,North,354,0.0,0.0,78,0.00,,,0.02,0.000000,,2013-11-14 08:42:00,
2013-11-14 08:53:00,20.0,14.0,-100.00,North,354,0.0,0.0,78,0.00,,,0.02,0.000000,,2013-11-14 08:53:00,
2013-11-14 09:02:00,20.0,14.0,-100.00,North,354,0.0,0.0,78,0.00,,,0.02,0.000000,,2013-11-14 09:02:00,
2013-11-14 09:11:00,22.0,15.0,-100.00,ENE,75,0.0,0.0,74,0.00,,,0.02,0.000000,,2013-11-14 09:11:00,
2013-11-14 09:43:00,22.0,15.0,-100.00,ENE,75,0.0,0.0,74,0.00,,,0.02,0.000000,,2013-11-14 09:43:00,
2013-11-14 09:53:00,22.0,15.0,-100.00,ENE,75,0.0,0.0,74,0.00,,,0.02,0.000000,,2013-11-14 09:53:00,
2013-11-14 10:03:00,22.0,15.0,-100.00,ENE,75,0.0,0.0,74,0.00,,,0.02,0.000000,,2013-11-14 10:03:00,
2013-11-14 10:11:00,21.0,15.0,-100.00,NW,309,0.0,0.0,78,0.00,,,0.02,0.000000,,2013-11-14 10:11:00,
2013-11-14 10:43:00,21.0,15.0,-100.00,NW,309,0.0,0.0,78,0.00,,,0.02,0.000000,,2013-11-14 10:43:00,
2013-11-14 10:52:00,21.0,15.0,-100.00,NW,309,0.0,0.0,78,0.00,,,0.02,0.000000,,2013-11-14 10:52:00,
2013-11-14 11:02:00,21.0,15.0,-100.00,NW,309,0.0,0.0,78,0.00,,,0.02,0.000000,,2013-11-14 11:02:00,
2013-11-14 11:11:00,20.0,14.0,-100.00,West,270,0.0,3.0,78,0.00,,,0.02,0.000000,,2013-11-14 11:11:00,
2013-11-14 11:42:00,20.0,14.0,-100.00,West,270,0.0,3.0,78,0.00,,,0.02,0.000000,,2013-11-14 11:42:00,
2013-11-14 11:52:00,20.0,14.0,-100.00,West,270,0.0,3.0,78,0.00,,,0.02,0.000000,,2013-11-14 11:52:00,
2013-11-14 12:02:00,20.0,14.0,-100.00,West,270,0.0,3.0,78,0.00,,,0.02,0.000000,,2013-11-14 12:02:00,
2013-11-14 12:11:00,21.0,14.0,-100.00,WNW,287,0.0,2.0,73,0.00,,,0.02,1.000000,,2013-11-14 12:11:00,
2013-11-14 12:42:00,21.0,14.0,-100.00,WNW,287,0.0,2.0,73,0.00,,,0.02,1.000000,,2013-11-14 12:42:00,
2013-11-14 12:52:00,21.0,14.0,-100.00,WNW,287,0.0,2.0,73,0.00,,,0.02,1.000000,,2013-11-14 12:52:00,
2013-11-14 13:02:00,21.0,14.0,-100.00,WNW,287,0.0,2.0,73,0.00,,,0.02,1.000000,,2013-11-14 13:02:00,
2013-11-14 13:11:00,30.0,21.0,-100.00,WNW,296,2.0,3.0,69,0.00,,,0.02,107.000000,,2013-11-14 13:11:00,
2013-11-14 13:42:00,30.0,21.0,-100.00,WNW,296,2.0,3.0,69,0.00,,,0.02,107.000000,,2013-11-14 13:42:00,
2013-11-14 13:52:00,30.0,21.0,-100.00,WNW,296,2.0,3.0,69,0.00,,,0.02,107.000000,,2013-11-14 13:52:00,
2013-11-14 14:02:00,30.0,21.0,-100.00,WNW,296,2.0,3.0,69,0.00,,,0.02,107.000000,,2013-11-14 14:02:00,
2013-11-14 14:11:00,38.0,23.0,-100.00,NE,47,2.0,5.0,54,0.00,,,0.02,324.000000,,2013-11-14 14:11:00,
2013-11-14 14:42:00,38.0,23.0,-100.00,NE,47,2.0,5.0,54,0.00,,,0.02,324.000000,,2013-11-14 14:42:00,
2013-11-14 14:52:00,38.0,23.0,-100.00,NE,47,2.0,5.0,54,0.00,,,0.02,324.000000,,2013-11-14 14:52:00,
2013-11-14 15:02:00,38.0,23.0,-100.00,NE,47,2.0,5.0,54,0.00,,,0.02,324.000000,,2013-11-14 15:02:00,
2013-11-14 15:11:00,41.0,18.0,-100.00,ENE,60,3.0,6.0,39,0.00,,,0.02,511.000000,,2013-11-14 15:11:00,
2013-11-14 15:43:00,41.0,18.0,-100.00,ENE,60,3.0,6.0,39,0.00,,,0.02,511.000000,,2013-11-14 15:43:00,
2013-11-14 15:53:00,41.0,18.0,-100.00,ENE,60,3.0,6.0,39,0.00,,,0.02,511.000000,,2013-11-14 15:53:00,
2013-11-14 16:03:00,41.0,18.0,-100.00,ENE,60,3.0,6.0,39,0.00,,,0.02,511.000000,,2013-11-14 16:03:00,
2013-11-14 16:11:00,46.0,20.0,-100.00,NE,38,3.0,8.0,35,0.00,,,0.00,652.000000,,2013-11-14 16:11:00,
2013-11-14 16:42:00,46.0,20.0,-100.00,NE,38,3.0,8.0,35,0.00,,,0.00,652.000000,,2013-11-14 16:42:00,
2013-11-14 16:52:00,46.0,20.0,-100.00,NE,38,3.0,8.0,35,0.00,,,0.00,652.000000,,2013-11-14 16:52:00,
2013-11-14 17:02:00,46.0,20.0,-100.00,NE,38,3.0,8.0,35,0.00,,,0.00,652.000000,,2013-11-14 17:02:00,
2013-11-14 17:11:00,49.0,15.0,-100.00,ENE,73,5.0,10.0,25,0.00,,,0.00,715.000000,,2013-11-14 17:11:00,
2013-11-14 17:42:00,49.0,15.0,-100.00,ENE,73,5.0,10.0,25,0.00,,,0.00,715.000000,,2013-11-14 17:42:00,
2013-11-14 17:52:00,49.0,15.0,-100.00,ENE,73,5.0,10.0,25,0.00,,,0.00,715.000000,,2013-11-14 17:52:00,
2013-11-14 18:02:00,49.0,15.0,-100.00,ENE,73,5.0,10.0,25,0.00,,,0.00,715.000000,,2013-11-14 18:02:00,
2013-11-14 18:11:00,50.0,13.0,-100.00,ENE,63,5.0,11.0,22,0.00,,,0.00,731.000000,,2013-11-14 18:11:00,
2013-11-14 18:42:00,50.0,13.0,-100.00,ENE,63,5.0,11.0,22,0.00,,,0.00,731.000000,,2013-11-14 18:42:00,
2013-11-14 18:52:00,50.0,13.0,-100.00,ENE,63,5.0,11.0,22,0.00,,,0.00,731.000000,,2013-11-14 18:52:00,
2013-11-14 19:01:00,50.0,13.0,-100.00,ENE,63,5.0,11.0,22,0.00,,,0.00,731.000000,,2013-11-14 19:01:00,
2013-11-14 19:11:00,51.0,12.0,-100.00,NE,56,5.0,11.0,21,0.00,,,0.00,611.000000,,2013-11-14 19:11:00,
2013-11-14 19:42:00,51.0,12.0,-100.00,NE,56,5.0,11.0,21,0.00,,,0.00,611.000000,,2013-11-14 19:42:00,
2013-11-14 19:52:00,51.0,12.0,-100.00,NE,56,5.0,11.0,21,0.00,,,0.00,611.000000,,2013-11-14 19:52:00,
2013-11-14 20:02:00,51.0,12.0,-100.00,NE,56,5.0,11.0,21,0.00,,,0.00,611.000000,,2013-11-14 20:02:00,
2013-11-14 20:42:00,51.0,10.0,-100.00,ENE,73,4.0,10.0,19,0.00,,,0.00,373.000000,,2013-11-14 20:42:00,
2013-11-14 21:11:00,47.0,11.0,-100.00,ENE,66,3.0,7.0,23,0.00,,,0.00,128.000000,,2013-11-14 21:11:00,
2013-11-14 22:11:00,44.0,12.0,-100.00,NNW,328,3.0,6.0,27,0.00,,,0.00,17.000000,,2013-11-14 22:11:00,
2013-11-14 22:43:00,44.0,12.0,-100.00,NNW,328,3.0,6.0,27,0.00,,,0.00,17.000000,,2013-11-14 22:43:00,
2013-11-14 22:53:00,44.0,12.0,-100.00,NNW,328,3.0,6.0,27,0.00,,,0.00,17.000000,,2013-11-14 22:53:00,
2013-11-14 23:02:00,44.0,12.0,-100.00,NNW,328,3.0,6.0,27,0.00,,,0.00,17.000000,,2013-11-14 23:02:00,
2013-11-14 23:11:00,42.0,12.0,-100.00,NNW,347,2.0,5.0,29,0.00,,,0.00,2.000000,,2013-11-14 23:11:00,
2013-11-14 23:43:00,42.0,12.0,-100.00,NNW,347,2.0,5.0,29,0.00,,,0.00,2.000000,,2013-11-14 23:43:00,
2013-11-14 23:52:00,42.0,12.0,-100.00,NNW,347,2.0,5.0,29,0.00,,,0.00,2.000000,,2013-11-14 23:52:00,